Location: Middelsbur
(53.6609°N, 7.5020°E)
Time: 12:42:39
(UTC+00:00)

Meteor 1-11 - Pass Details

Date: 06 July 2020
Orbit: 842 x 886 km, 81.2° (Epoch: 07 August)

Event Time Altitude Azimuth Distance (km) Brightness Sun altitude
Rises 20:57:34 0° 186° (S) 3,405 6.9 -6.5°
Reaches altitude 10° 20:59:58 10° 186° (S) 2,479 6.2 -6.8°
Maximum altitude 21:05:35 78° 101° (E) 885 4.3 -7.2°
Drops below altitude 10° 21:11:19 10° 16° (NNE) 2,527 7.3 -7.7°
Sets 21:13:47 0° 15° (NNE) 3,476 8.1 -7.9°
